2023/06/23 00:00:00, 0.2,18.0
2023/06/23 00:10:00, 0.3,17.9
2023/06/23 00:20:00, 0.2,18.0
2023/06/23 00:30:00, 0.2,18.0
2023/06/23 00:40:00, 0.2,18.0
2023/06/23 00:50:00, 0.2,18.0
2023/06/23 01:00:00, 0.2,18.1
2023/06/23 01:10:00, 0.3,18.1
2023/06/23 01:20:00, 0.3,18.0
2023/06/23 01:30:00, 0.3,18.2
2023/06/23 01:40:00, 0.3,18.2
2023/06/23 01:50:00, 0.3,17.8
2023/06/23 02:00:00, 0.3,17.8
2023/06/23 02:10:00, 0.3,17.7
2023/06/23 02:20:00, 0.3,17.8
2023/06/23 02:30:00, 0.2,17.7
2023/06/23 02:40:00, 0.2,17.6
2023/06/23 02:50:00, 0.2,17.8
2023/06/23 03:00:00, 0.2,17.7
2023/06/23 03:10:00, 0.2,18.1
2023/06/23 03:20:00, 0.2,17.4
2023/06/23 03:30:00, 0.1,17.6
2023/06/23 03:40:00, 0.2,17.4
2023/06/23 03:50:00, 0.2,17.2
2023/06/23 04:00:00, 0.2,17.3
2023/06/23 04:10:00, 0.2,17.3
2023/06/23 04:20:00, 0.2,17.3
2023/06/23 04:30:00, 0.2,17.1
2023/06/23 04:40:00, 0.3,17.1
2023/06/23 04:50:00, 0.3,17.0
2023/06/23 05:00:00, 0.2,16.8
2023/06/23 05:10:00, 0.2,16.7
2023/06/23 05:20:00, 0.2,16.8
2023/06/23 05:30:00, 0.2,16.9
2023/06/23 05:40:00, 0.2,16.8
2023/06/23 05:50:00, 0.1,17.1
2023/06/23 06:00:00, 0.1,17.1
2023/06/23 06:10:00, 0.2,17.7
2023/06/23 06:20:00, 0.2,17.3
2023/06/23 06:30:00, 0.2,17.7
2023/06/23 06:40:00, 0.2,18.1
2023/06/23 06:50:00, 0.3,18.8
2023/06/23 07:00:00, 0.2,19.0
2023/06/23 07:10:00, 0.2,19.0
2023/06/23 07:20:00, 0.2,20.4
2023/06/23 07:30:00, 0.2,20.7
2023/06/23 07:40:00, 0.3,20.8
2023/06/23 07:50:00, 0.3,21.0
2023/06/23 08:00:00, 0.3,21.5
2023/06/23 08:10:00, 0.2,21.4
2023/06/23 08:20:00, 0.2,22.1
2023/06/23 08:30:00, 0.1,22.2
2023/06/23 08:40:00, 0.2,22.9
2023/06/23 08:50:00, 0.1,23.8
2023/06/23 09:00:00, 0.2,24.2
2023/06/23 09:10:00, 0.1,24.7
2023/06/23 09:20:00, 0.1,25.1
2023/06/23 09:30:00, 0.2,24.8
2023/06/23 09:40:00, 0.2,25.1
2023/06/23 09:50:00, 0.2,25.4
2023/06/23 10:00:00, 0.2,25.1
2023/06/23 10:10:00, 0.2,24.5
2023/06/23 10:20:00, 0.2,23.7
2023/06/23 10:30:00, 0.1,22.8
2023/06/23 10:40:00, 0.1,22.6
2023/06/23 10:50:00, 0.2,22.7
2023/06/23 11:00:00, 0.2,23.2
2023/06/23 11:10:00, 0.2,23.9
2023/06/23 11:20:00, 0.2,24.7
2023/06/23 11:30:00, 0.2,24.7
2023/06/23 11:40:00, 0.1,24.2
2023/06/23 11:50:00, 0.2,25.1
2023/06/23 12:00:00, 0.4,26.3
2023/06/23 12:10:00, 0.2,27.2
2023/06/23 12:20:00, 0.3,27.6
2023/06/23 12:30:00, 0.2,27.2
2023/06/23 12:40:00, 0.2,28.2
2023/06/23 12:50:00, 0.2,26.7
2023/06/23 13:00:00, 0.1,25.5
2023/06/23 13:10:00, 0.2,25.8
2023/06/23 13:20:00, 0.2,26.7
2023/06/23 13:30:00, 0.3,28.5
2023/06/23 13:40:00, 0.2,26.8
2023/06/23 13:50:00, 0.1,26.9
2023/06/23 14:00:00, 0.1,26.0
2023/06/23 14:10:00, 0.1,26.6
2023/06/23 14:20:00, 0.3,29.8
2023/06/23 14:30:00, 0.2,27.8
2023/06/23 14:40:00, 0.3,29.7
2023/06/23 14:50:00, 0.3,29.0
2023/06/23 15:00:00, 0.3,28.6
2023/06/23 15:10:00, 0.3,30.4
2023/06/23 15:20:00, 0.4,29.8
2023/06/23 15:30:00, 0.4,29.7
2023/06/23 15:40:00, 0.3,30.0
2023/06/23 15:50:00, 0.4,31.7
2023/06/23 16:00:00, 0.3,32.1
2023/06/23 16:10:00, 0.4,31.8
2023/06/23 16:20:00, 0.3,32.4
2023/06/23 16:30:00, 0.4,34.6
2023/06/23 16:40:00, 0.3,31.7
2023/06/23 16:50:00, 0.2,29.7
2023/06/23 17:00:00, 0.1,32.8
2023/06/23 17:10:00, 0.0,27.9
2023/06/23 17:20:00, 0.0,25.4
2023/06/23 17:30:00, 0.0,24.8
2023/06/23 17:40:00, 0.0,24.8
2023/06/23 17:50:00, 0.0,24.5
2023/06/23 18:00:00, 0.0,27.2
2023/06/23 18:10:00, 0.0,25.7
2023/06/23 18:20:00, 0.0,23.3
2023/06/23 18:30:00, 0.0,22.9
2023/06/23 18:40:00, 0.1,22.6
2023/06/23 18:50:00, 0.1,22.3
2023/06/23 19:00:00, 0.0,21.8
2023/06/23 19:10:00, 0.0,21.1
2023/06/23 19:20:00, 0.1,20.8
2023/06/23 19:30:00, 0.1,20.7
2023/06/23 19:40:00, 0.1,20.5
2023/06/23 19:50:00, 0.1,20.5
2023/06/23 20:00:00, 0.1,20.5
2023/06/23 20:10:00, 0.1,20.4
2023/06/23 20:20:00, 0.1,20.1
2023/06/23 20:30:00, 0.1,19.9
2023/06/23 20:40:00, 0.1,19.7
2023/06/23 20:50:00, 0.1,19.6
2023/06/23 21:00:00, 0.2,19.7
2023/06/23 21:10:00, 0.2,19.6
2023/06/23 21:20:00, 0.1,19.6
2023/06/23 21:30:00, 0.1,19.5
2023/06/23 21:40:00, 0.1,19.5
2023/06/23 21:50:00, 0.1,19.5
2023/06/23 22:00:00, 0.1,19.5
2023/06/23 22:10:00, 0.1,19.6
2023/06/23 22:20:00, 0.2,19.4
2023/06/23 22:30:00, 0.1,19.4
2023/06/23 22:40:00, 0.1,19.3
2023/06/23 22:50:00, 0.1,19.3
2023/06/23 23:00:00, 0.1,19.2
2023/06/23 23:10:00, 0.1,19.3
2023/06/23 23:20:00, 0.1,19.0
2023/06/23 23:30:00, 0.1,19.4
2023/06/23 23:40:00, 0.1,19.1
2023/06/23 23:50:00, 0.1,19.1
